TimeCST,TemperatureF,Dew PointF,Humidity,Sea Level PressureIn,VisibilityMPH,Wind Direction,Wind SpeedMPH,Gust SpeedMPH,PrecipitationIn,Events,Conditions,WindDirDegrees,DateUTC
12:15 AM,57.2,55.4,94,29.73,4.0,West,15.0,-,0.01,Rain,Rain,260,2014-01-11 06:15:00
12:35 AM,57.2,55.4,94,29.71,10.0,WSW,12.7,-,0.04,,Light Drizzle,240,2014-01-11 06:35:00
12:55 AM,57.2,53.6,88,29.72,10.0,West,15.0,-,0.04,,Mostly Cloudy,260,2014-01-11 06:55:00
1:15 AM,55.4,53.6,94,29.71,10.0,West,8.1,-,0.01,Rain,Rain,260,2014-01-11 07:15:00
1:35 AM,55.4,53.6,94,29.72,10.0,WSW,9.2,-,0.01,,Mostly Cloudy,250,2014-01-11 07:35:00
1:55 AM,55.4,51.8,88,29.72,10.0,West,10.4,-,0.01,,Scattered Clouds,260,2014-01-11 07:55:00
2:15 AM,55.4,51.8,88,29.72,10.0,West,10.4,-,N/A,,Mostly Cloudy,260,2014-01-11 08:15:00
2:35 AM,53.6,51.8,94,29.73,10.0,West,10.4,-,N/A,,Mostly Cloudy,260,2014-01-11 08:35:00
2:55 AM,53.6,51.8,94,29.75,10.0,West,11.5,-,N/A,,Scattered Clouds,280,2014-01-11 08:55:00
3:15 AM,53.6,50.0,88,29.76,10.0,West,12.7,-,N/A,,Clear,270,2014-01-11 09:15:00
3:35 AM,53.6,48.2,82,29.76,10.0,West,9.2,-,N/A,,Clear,280,2014-01-11 09:35:00
3:55 AM,51.8,48.2,88,29.77,10.0,West,8.1,-,N/A,,Scattered Clouds,270,2014-01-11 09:55:00
4:15 AM,51.8,46.4,82,29.77,10.0,West,8.1,-,N/A,,Clear,270,2014-01-11 10:15:00
4:35 AM,50.0,46.4,87,29.78,10.0,West,6.9,-,N/A,,Clear,270,2014-01-11 10:35:00
4:55 AM,48.2,44.6,87,29.78,10.0,West,5.8,-,N/A,,Clear,260,2014-01-11 10:55:00
5:15 AM,44.6,42.8,93,29.79,10.0,WSW,5.8,-,N/A,,Clear,250,2014-01-11 11:15:00
5:35 AM,44.6,42.8,93,29.79,10.0,WSW,6.9,-,N/A,,Clear,240,2014-01-11 11:35:00
5:55 AM,44.6,42.8,93,29.80,10.0,SW,5.8,-,N/A,,Clear,230,2014-01-11 11:55:00
6:15 AM,44.6,41.0,87,29.80,10.0,SW,6.9,-,N/A,,Clear,230,2014-01-11 12:15:00
6:35 AM,44.6,41.0,87,29.81,10.0,SW,6.9,-,N/A,,Clear,230,2014-01-11 12:35:00
6:55 AM,44.6,41.0,87,29.82,10.0,SW,6.9,-,N/A,,Clear,230,2014-01-11 12:55:00
7:15 AM,44.6,41.0,87,29.82,10.0,SW,10.4,-,N/A,,Clear,230,2014-01-11 13:15:00
7:35 AM,44.6,39.2,81,29.84,10.0,WSW,9.2,-,N/A,,Scattered Clouds,250,2014-01-11 13:35:00
7:55 AM,46.4,39.2,76,29.84,10.0,West,11.5,-,N/A,,Clear,260,2014-01-11 13:55:00
8:15 AM,46.4,37.4,71,29.85,10.0,West,15.0,19.6,N/A,,Clear,270,2014-01-11 14:15:00
8:35 AM,48.2,37.4,66,29.85,10.0,West,12.7,-,N/A,,Clear,270,2014-01-11 14:35:00
8:55 AM,50.0,37.4,62,29.86,10.0,West,12.7,-,N/A,,Clear,270,2014-01-11 14:55:00
9:15 AM,50.0,37.4,62,29.88,10.0,West,16.1,-,N/A,,Clear,270,2014-01-11 15:15:00
9:35 AM,50.0,37.4,62,29.89,10.0,West,13.8,-,N/A,,Clear,270,2014-01-11 15:35:00
9:55 AM,50.0,37.4,62,29.90,10.0,West,12.7,-,N/A,,Clear,280,2014-01-11 15:55:00
10:15 AM,50.0,37.4,62,29.90,10.0,WNW,13.8,-,N/A,,Clear,290,2014-01-11 16:15:00
10:35 AM,50.0,37.4,62,29.90,10.0,West,12.7,-,N/A,,Clear,280,2014-01-11 16:35:00
10:55 AM,51.8,39.2,62,29.90,10.0,WNW,13.8,-,N/A,,Clear,300,2014-01-11 16:55:00
11:15 AM,51.8,39.2,62,29.90,10.0,WNW,12.7,-,N/A,,Clear,290,2014-01-11 17:15:00
11:35 AM,51.8,37.4,58,29.90,10.0,WNW,15.0,-,N/A,,Clear,290,2014-01-11 17:35:00
11:55 AM,51.8,39.2,62,29.89,10.0,West,15.0,20.7,N/A,,Clear,280,2014-01-11 17:55:00
12:15 PM,51.8,39.2,62,29.90,10.0,West,16.1,-,N/A,,Clear,280,2014-01-11 18:15:00
12:35 PM,51.8,41.0,67,29.89,10.0,West,12.7,-,N/A,,Clear,280,2014-01-11 18:35:00
12:55 PM,51.8,39.2,62,29.89,10.0,WNW,12.7,-,N/A,,Clear,300,2014-01-11 18:55:00
1:15 PM,53.6,41.0,62,29.89,10.0,West,12.7,-,N/A,,Clear,270,2014-01-11 19:15:00
1:35 PM,53.6,41.0,62,29.90,10.0,WSW,12.7,-,N/A,,Clear,250,2014-01-11 19:35:00
1:55 PM,53.6,41.0,62,29.90,10.0,WSW,10.4,-,N/A,,Clear,250,2014-01-11 19:55:00
2:15 PM,53.6,41.0,62,29.91,10.0,WSW,11.5,-,N/A,,Clear,250,2014-01-11 20:15:00
2:35 PM,53.6,41.0,62,29.91,10.0,West,11.5,-,N/A,,Scattered Clouds,260,2014-01-11 20:35:00
2:55 PM,53.6,41.0,62,29.91,10.0,West,15.0,-,N/A,,Scattered Clouds,260,2014-01-11 20:55:00
3:15 PM,53.6,41.0,62,29.92,10.0,WSW,10.4,-,N/A,,Clear,250,2014-01-11 21:15:00
3:35 PM,53.6,41.0,62,29.93,10.0,WSW,12.7,-,N/A,,Clear,250,2014-01-11 21:35:00
3:55 PM,53.6,41.0,62,29.93,10.0,West,11.5,-,N/A,,Clear,260,2014-01-11 21:55:00
4:15 PM,53.6,39.2,58,29.94,10.0,West,10.4,-,N/A,,Clear,270,2014-01-11 22:15:00
4:35 PM,51.8,41.0,67,29.94,10.0,WSW,10.4,-,N/A,,Clear,250,2014-01-11 22:35:00
4:55 PM,51.8,41.0,67,29.95,10.0,West,8.1,-,N/A,,Clear,270,2014-01-11 22:55:00
5:15 PM,48.2,41.0,76,29.95,10.0,SW,8.1,-,N/A,,Clear,230,2014-01-11 23:15:00
5:35 PM,46.4,41.0,81,29.95,10.0,WSW,6.9,-,N/A,,Clear,240,2014-01-11 23:35:00
5:55 PM,46.4,39.2,76,29.95,10.0,SW,6.9,-,N/A,,Clear,230,2014-01-11 23:55:00
6:15 PM,46.4,39.2,76,29.96,10.0,SW,8.1,-,N/A,,Clear,230,2014-01-12 00:15:00
6:35 PM,46.4,37.4,71,29.97,10.0,SW,6.9,-,N/A,,Clear,230,2014-01-12 00:35:00
6:55 PM,44.6,37.4,76,29.98,10.0,SW,3.5,-,N/A,,Clear,220,2014-01-12 00:55:00
7:15 PM,44.6,37.4,76,29.98,10.0,SSW,5.8,-,N/A,,Clear,200,2014-01-12 01:15:00
7:35 PM,44.6,37.4,76,29.99,10.0,SW,5.8,-,N/A,,Clear,220,2014-01-12 01:35:00
7:55 PM,42.8,37.4,81,30.00,10.0,SW,6.9,-,N/A,,Clear,220,2014-01-12 01:55:00
8:15 PM,42.8,35.6,76,30.01,10.0,SW,8.1,-,N/A,,Clear,230,2014-01-12 02:15:00
8:35 PM,42.8,35.6,76,30.01,10.0,WSW,6.9,-,N/A,,Clear,240,2014-01-12 02:35:00
8:55 PM,41.0,35.6,81,30.02,10.0,WSW,8.1,-,N/A,,Clear,240,2014-01-12 02:55:00
9:15 PM,42.8,35.6,76,30.03,10.0,WSW,9.2,-,N/A,,Clear,250,2014-01-12 03:15:00
9:35 PM,42.8,33.8,70,30.03,10.0,West,9.2,-,N/A,,Clear,260,2014-01-12 03:35:00
9:55 PM,42.8,33.8,70,30.04,10.0,West,9.2,-,N/A,,Clear,260,2014-01-12 03:55:00
10:15 PM,42.8,33.8,70,30.04,10.0,West,8.1,-,N/A,,Clear,270,2014-01-12 04:15:00
10:35 PM,42.8,33.8,70,30.04,10.0,West,9.2,-,N/A,,Clear,270,2014-01-12 04:35:00
10:55 PM,44.6,33.8,66,30.04,10.0,West,9.2,-,N/A,,Clear,270,2014-01-12 04:55:00
11:15 PM,44.6,33.8,66,30.05,10.0,West,9.2,-,N/A,,Clear,280,2014-01-12 05:15:00
11:35 PM,44.6,33.8,66,30.05,10.0,WNW,9.2,-,N/A,,Clear,290,2014-01-12 05:35:00
11:55 PM,42.8,33.8,70,30.05,10.0,WNW,4.6,-,N/A,,Clear,300,2014-01-12 05:55:00